User: anonymous   Login
Location: Oshawa
(43.9000°N, 78.8670°W)
Time: 21:27:11
(UTC-05:00)
Language:

Cosmos 2333 Rocket - Orbit

View from above orbital plane
View from above orbital plane
View from above satellite
View from above satellite

Ground track
Ground track

The orbit data is extracted from the following two-line orbital elements,

1 24298U 96051B   16336.92370024  .00000130  00000-0  96313-4 0  9992
2 24298  70.8438 117.8213 0013940 126.6123 233.6281 14.12458710 43968
Epoch (UTC): 01 December 2016 22:10:07
Eccentricity: 0.0013940
inclination: 70.8438°
perigee height: 841 km
apogee height: 861 km
right ascension of ascending node: 117.8213°
argument of perigee: 126.6123°
revolutions per day: 14.12458710
mean anomaly at epoch: 233.6281°
orbit number at epoch: 4396

The dashed part of the orbit path shows where the satellite is in the earth's shadow,  

DLR